Location: Frydek-Mistek
(49.6830°N, 18.3330°E)
Time: 16:19:55
(UTC+02:00)

ISS - Visible Passes

Search period start: 26 June 2022 00:00
Search period end: 06 July 2022 00:00
Orbit: 415 x 420 km, 51.6° (Epoch: 26 June)

Date Brightness Start Highest point End Pass type
(mag) Time Alt. Az. Time Alt. Az. Time Alt. Az.
29 Jun -1.8 03:23:05 11° S 03:25:22 19° SE 03:27:49 10° E visible
30 Jun -1.4 02:37:20 12° SSE 02:38:09 12° SE 02:39:40 10° ESE visible
01 Jul -3.0 03:24:41 14° SW 03:27:14 39° SSE 03:30:26 10° E visible
02 Jul -2.5 02:39:13 22° S 02:40:19 27° SE 02:43:16 10° E visible
03 Jul -2.0 01:53:54 19° SE 01:53:54 19° SE 01:56:07 10° E visible
03 Jul -3.8 03:26:53 11° WSW 03:30:05 77° SSE 03:33:31 10° ENE visible
04 Jul -1.1 01:08:43 10° ESE 01:08:43 10° ESE 01:08:50 10° ESE visible
04 Jul -3.6 02:41:42 24° SW 02:43:28 57° SSE 02:46:50 10° ENE visible
05 Jul -3.3 01:56:39 38° S 01:57:06 41° SSE 02:00:19 10° ENE visible
05 Jul -3.4 03:30:30 10° W 03:33:54 70° N 03:37:19 10° ENE visible
